This is the latest recevied weather packets stored in our database for station/object KG7BDA. If no packets are shown the sender has not sent any weather packets the latest 10 day(s).
| Time | Temp. | Humidity | Pressure | Rain* | Wind** | Luminosity | Snow |
|---|---|---|---|---|---|---|---|
| 1777397231 | 12.22° C | 50% | 1021.3 hPa | 0 mm | - | - | - |
| 1777396871 | 11.67° C | 51% | 1021.3 hPa | 0 mm | - | - | - |
| 1777396511 | 11.67° C | 51% | 1021.3 hPa | 0 mm | - | - | - |
| 1777396151 | 11.67° C | 51% | 1021.4 hPa | 0 mm | - | - | - |
| 1777395791 | 11.11° C | 54% | 1021.4 hPa | 0 mm | - | - | - |
| 1777395431 | 11.11° C | 55% | 1020.5 hPa | 0 mm | - | - | - |
| 1777395071 | 11.11° C | 54% | 1020.6 hPa | 0 mm | - | - | - |
| 1777394712 | 11.11° C | 55% | 1020.5 hPa | 0 mm | - | - | - |
| 1777394352 | 10.56° C | 54% | 1020.5 hPa | 0 mm | - | - | - |
| 1777393991 | 10.56° C | 55% | 1020.3 hPa | 0 mm | - | - | - |
| 1777393631 | 10.56° C | 56% | 1020.3 hPa | 0 mm | - | - | - |
| 1777393270 | 10.56° C | 54% | 1020.4 hPa | 0 mm | - | - | - |
| 1777392942 | 10° C | 54% | 1020.4 hPa | 0 mm | - | - | - |
| 1777392911 | 10° C | 54% | 1020.4 hPa | 0 mm | - | - | - |
| 1777392552 | 10° C | 56% | 1020.4 hPa | 0 mm | - | - | - |
| 1777392191 | 10° C | 56% | 1020.5 hPa | 0 mm | - | - | - |
| 1777391831 | 10° C | 56% | 1020.5 hPa | 0 mm | - | - | - |
| 1777391471 | 10° C | 57% | 1020.5 hPa | 0 mm | - | - | - |
| 1777391110 | 9.44° C | 56% | 1020.4 hPa | 0 mm | - | - | - |
| 1777390751 | 10° C | 56% | 1020.4 hPa | 0 mm | - | - | - |
| 1777390467 | 10° C | 55% | 1020.3 hPa | 0 mm | - | - | - |
| 1777390391 | 10° C | 55% | 1020.3 hPa | 0 mm | - | - | - |
| 1777390030 | 10° C | 56% | 1020.3 hPa | 0 mm | - | - | - |
| 1777389671 | 10° C | 57% | 1020.2 hPa | 0 mm | - | - | - |
| 1777389310 | 10° C | 57% | 1020.2 hPa | 0 mm | - | - | - |
* Rain latest hour (hover to see other rain measurements)
** Current wind speed in m/s (hover to see current wind gust speed)